Tracking 19846 objects as of 19-Sep-2019
HD Live streaming from Space Station
objects crossing your sky now

LES 6

Track LES 6 now!
LES 6 is classified as:


NORAD ID: 3431
Int'l Code: 1968-081D
Perigee: 35,773.3 km
Apogee: 35,858.9 km
Inclination: 4.9 °
Period: 1,437.2 minutes
Semi major axis: 42187 km
RCS: 3.1622 m2 (large)
Launch date: September 26, 1968
Source: United States (US)
Launch site: AIR FORCE EASTERN TEST RANGE (AFETR)
aabbcc
Your satellite tracking list
Your tracking list is empty




NASA's NSSDC Master Catalog

Two Line Element Set (TLE):
1  3431U 68081D   19260.60455745 -.00000117 +00000-0 +00000-0 0  9998
2  3431 004.9333 306.8348 0010145 353.0538 173.5977 01.00192263096070
Source of the keplerian elements: AFSPC